Weather History for Menominee, MI

Change the Weather History Date:

Friday, November 8, 2013

  Actual Average Record
Temperature  
Mean Temperature 36 °F -  
Max Temperature 44 °F 46 °F 68 °F (1949)
Min Temperature 28 °F 29 °F 7 °F (1991)
Degree Days  
Heating Degree Days 29    
Moisture  
Dew Point 27 °F    
Average Humidity 69    
Maximum Humidity 81    
Minimum Humidity 48    
Precipitation  
Precipitation 0.03 in - - ()
Sea Level Pressure  
Sea Level Pressure 30.11 in    
Wind  
Wind Speed 6 mph (SW)    
Max Wind Speed 18 mph    
Max Gust Speed 30 mph    
Visibility 10 miles    
Events      
Averages and records for this station are not official NWS values.
T = Trace of Precipitation, MM = Missing Value Source: NWS Daily Summary

Daily Weather History Graph

Daily Weather History Graph

Search for Another Location

Airport:

Trip Planner

Search our weather history database for the weather conditions in past years. The results will help you decide how hot, cold, wet, or windy it might be!

Date:

Astronomy

Nov. 08, 2013 Rise Set
Actual Time 6:39 AM CST 4:28 PM CST
Civil Twilight 6:07 AM CST 5:00 PM CST
Nautical Twilight 5:32 AM CST 5:35 PM CST
Astronomical Twilight 4:58 AM CST 6:09 PM CST
Moon 11:34 AM CST (11/8) 9:50 PM CST (11/8)
Length of Visible Light 10h 52m
Length of Day
9h 49m
Waxing Crescent, 33% of the Moon is Illuminated
Nov 8
Waxing Crescent
Nov 9
First Quarter
Nov 17
Full
Nov 25
Last Quarter
Dec 2
New

Hourly Weather History & Observations

Time (CST) Temp. Windchill Dew Point Humidity Pressure Visibility Wind Dir Wind Speed Gust Speed Precip Events Conditions
12:15 AM 33.8 °F 28.6 °F 23.0 °F 65% 30.14 in 10.0 mi WNW 5.8 mph - N/A   Overcast
12:35 AM 33.8 °F 30.8 °F 24.8 °F 70% 30.14 in 10.0 mi WNW 3.5 mph - N/A   Mostly Cloudy
12:55 AM 32.0 °F 27.5 °F 21.2 °F 64% 30.14 in 10.0 mi West 4.6 mph - N/A   Overcast
1:15 AM 32.0 °F 28.7 °F 23.0 °F 69% 30.15 in 10.0 mi West 3.5 mph - N/A   Overcast
1:35 AM 32.0 °F 28.7 °F 24.8 °F 75% 30.15 in 10.0 mi West 3.5 mph - N/A   Overcast
1:55 AM 32.0 °F 27.5 °F 23.0 °F 69% 30.15 in 10.0 mi West 4.6 mph - N/A   Overcast
2:15 AM 32.0 °F 28.7 °F 23.0 °F 69% 30.16 in 10.0 mi West 3.5 mph - N/A   Overcast
2:35 AM 32.0 °F 27.5 °F 24.8 °F 75% 30.16 in 10.0 mi West 4.6 mph - N/A   Overcast
2:55 AM 32.0 °F 28.7 °F 24.8 °F 75% 30.16 in 10.0 mi West 3.5 mph - N/A   Overcast
3:15 AM 33.8 °F 30.8 °F 24.8 °F 70% 30.16 in 10.0 mi WNW 3.5 mph - N/A   Overcast
3:35 AM 33.8 °F 30.8 °F 24.8 °F 70% 30.17 in 10.0 mi West 3.5 mph - N/A   Overcast
3:55 AM 33.8 °F 29.6 °F 23.0 °F 65% 30.17 in 10.0 mi West 4.6 mph - N/A   Overcast
4:15 AM 33.8 °F 29.6 °F 23.0 °F 65% 30.18 in 10.0 mi West 4.6 mph - N/A   Overcast
4:35 AM 33.8 °F 28.6 °F 21.2 °F 60% 30.18 in 10.0 mi WNW 5.8 mph - N/A   Overcast
4:55 AM 32.0 °F 27.5 °F 21.2 °F 64% 30.18 in 10.0 mi West 4.6 mph - N/A   Overcast
5:15 AM 32.0 °F 27.5 °F 21.2 °F 64% 30.18 in 10.0 mi West 4.6 mph - N/A   Mostly Cloudy
5:35 AM 30.2 °F 26.7 °F 19.4 °F 64% 30.19 in 10.0 mi West 3.5 mph - N/A   Partly Cloudy
5:55 AM 30.2 °F 26.7 °F 21.2 °F 69% 30.19 in 10.0 mi West 3.5 mph - N/A   Clear
6:15 AM 28.4 °F 24.6 °F 21.2 °F 74% 30.19 in 10.0 mi West 3.5 mph - N/A   Clear
6:35 AM 28.4 °F 24.6 °F 21.2 °F 74% 30.20 in 10.0 mi West 3.5 mph - N/A   Clear
6:55 AM 28.4 °F - 21.2 °F 74% 30.20 in 10.0 mi Calm Calm - N/A   Clear
7:15 AM 28.4 °F 24.6 °F 21.2 °F 74% 30.21 in 10.0 mi West 3.5 mph - N/A   Clear
7:35 AM 28.4 °F 24.6 °F 23.0 °F 80% 30.21 in 10.0 mi West 3.5 mph - N/A   Clear
7:55 AM 30.2 °F 25.4 °F 24.8 °F 80% 30.22 in 10.0 mi West 4.6 mph - N/A   Clear
8:15 AM 30.2 °F 25.4 °F 24.8 °F 80% 30.22 in 10.0 mi West 4.6 mph - N/A   Clear
8:35 AM 32.0 °F 27.5 °F 24.8 °F 75% 30.22 in 10.0 mi West 4.6 mph - N/A   Clear
8:55 AM 33.8 °F 29.6 °F 26.6 °F 75% 30.22 in 10.0 mi West 4.6 mph - N/A   Clear
9:15 AM 35.6 °F 31.7 °F 24.8 °F 65% 30.21 in 10.0 mi West 4.6 mph - N/A   Clear
9:35 AM 35.6 °F 32.8 °F 24.8 °F 65% 30.21 in 10.0 mi WSW 3.5 mph - N/A   Clear
9:55 AM 37.4 °F 32.1 °F 21.2 °F 52% 30.21 in 10.0 mi SW 6.9 mph - N/A   Clear
10:15 AM 37.4 °F 32.8 °F 19.4 °F 48% 30.21 in 10.0 mi West 5.8 mph - N/A   Clear
10:35 AM 39.2 °F 33.6 °F 21.2 °F 49% 30.21 in 10.0 mi SSW 8.1 mph - N/A   Clear
10:55 AM 39.2 °F 33.0 °F 21.2 °F 49% 30.20 in 10.0 mi WSW 9.2 mph - N/A   Clear
11:15 AM 39.2 °F 33.0 °F 21.2 °F 49% 30.19 in 10.0 mi SSW 9.2 mph 16.1 mph N/A   Clear
11:35 AM 39.2 °F 33.0 °F 21.2 °F 49% 30.18 in 10.0 mi WSW 9.2 mph - N/A   Clear
11:55 AM 39.2 °F 33.6 °F 23.0 °F 52% 30.16 in 10.0 mi SSW 8.1 mph - N/A   Clear
12:15 PM 39.2 °F 33.0 °F 26.6 °F 61% 30.15 in 10.0 mi SSW 9.2 mph - N/A   Clear
12:35 PM 39.2 °F 34.2 °F 24.8 °F 56% 30.14 in 10.0 mi West 6.9 mph - N/A   Clear
12:55 PM 39.2 °F 34.2 °F 26.6 °F 61% 30.14 in 10.0 mi WSW 6.9 mph - N/A   Clear
1:15 PM 39.2 °F 34.2 °F 26.6 °F 61% 30.13 in 9.0 mi WSW 6.9 mph - N/A   Clear
1:35 PM 37.4 °F 32.8 °F 26.6 °F 65% 30.13 in 9.0 mi West 5.8 mph - N/A   Clear
1:55 PM 37.4 °F 30.3 °F 26.6 °F 65% 30.13 in 8.0 mi SW 10.4 mph - N/A   Clear
2:15 PM 35.6 °F 28.0 °F 26.6 °F 70% 30.13 in 8.0 mi SW 10.4 mph - N/A   Clear
2:35 PM 35.6 °F 29.2 °F 26.6 °F 70% 30.12 in 8.0 mi SW 8.1 mph - N/A   Clear
2:55 PM 35.6 °F 31.7 °F 24.8 °F 65% 30.12 in 8.0 mi WSW 4.6 mph - N/A   Clear
3:15 PM 35.6 °F 32.8 °F 26.6 °F 70% 30.11 in 8.0 mi SW 3.5 mph - N/A   Clear
3:35 PM 35.6 °F 29.2 °F 28.4 °F 75% 30.11 in 8.0 mi SSW 8.1 mph - N/A   Clear
3:55 PM 35.6 °F 30.7 °F 28.4 °F 75% 30.10 in 7.0 mi SW 5.8 mph - N/A   Mostly Cloudy
4:15 PM 35.6 °F 32.8 °F 28.4 °F 75% 30.09 in 7.0 mi South 3.5 mph - N/A   Overcast
4:35 PM 35.6 °F - 28.4 °F 75% 30.08 in 7.0 mi Calm Calm - N/A   Scattered Clouds
4:55 PM 35.6 °F 32.8 °F 28.4 °F 75% 30.07 in 8.0 mi SSE 3.5 mph - N/A   Partly Cloudy
5:15 PM 37.4 °F 34.9 °F 28.4 °F 70% 30.06 in 8.0 mi SSE 3.5 mph - N/A   Mostly Cloudy
5:35 PM 37.4 °F 33.8 °F 30.2 °F 75% 30.06 in 9.0 mi South 4.6 mph - N/A   Mostly Cloudy
5:55 PM 39.2 °F 32.5 °F 28.4 °F 65% 30.05 in 10.0 mi South 10.4 mph - N/A   Scattered Clouds
6:15 PM 39.2 °F 33.0 °F 30.2 °F 70% 30.04 in 10.0 mi South 9.2 mph - N/A   Mostly Cloudy
6:35 PM 39.2 °F 32.5 °F 30.2 °F 70% 30.04 in 10.0 mi South 10.4 mph - N/A   Overcast
6:55 PM 39.2 °F 33.0 °F 30.2 °F 70% 30.04 in 10.0 mi South 9.2 mph - N/A   Overcast
7:15 PM 39.2 °F 32.5 °F 32.0 °F 75% 30.03 in 10.0 mi South 10.4 mph 17.3 mph N/A   Overcast
7:35 PM 39.2 °F 33.0 °F 32.0 °F 75% 30.03 in 10.0 mi South 9.2 mph 19.6 mph N/A   Overcast
7:55 PM 39.2 °F 32.5 °F 32.0 °F 75% 30.02 in 10.0 mi South 10.4 mph 16.1 mph N/A   Overcast
8:15 PM 41.0 °F 34.7 °F 32.0 °F 70% 29.99 in 10.0 mi South 10.4 mph - N/A   Overcast
8:35 PM 41.0 °F 34.7 °F 32.0 °F 70% 30.00 in 10.0 mi SSW 10.4 mph 17.3 mph N/A   Mostly Cloudy
8:55 PM 41.0 °F 35.2 °F 33.8 °F 76% 29.99 in 10.0 mi South 9.2 mph - N/A   Overcast
9:15 PM 42.8 °F 37.0 °F 35.6 °F 76% 29.97 in 10.0 mi South 10.4 mph - N/A   Overcast
9:35 PM 42.8 °F 35.8 °F 35.6 °F 76% 29.95 in 10.0 mi South 13.8 mph 20.7 mph N/A   Mostly Cloudy
9:55 PM 42.8 °F 34.8 °F 35.6 °F 76% 29.94 in 9.0 mi SSE 17.3 mph 21.9 mph N/A   Overcast
10:15 PM 44.6 °F 36.9 °F 35.6 °F 71% 29.93 in 10.0 mi South 18.4 mph 24.2 mph N/A   Overcast
10:35 PM 44.6 °F 37.8 °F 35.6 °F 71% 29.91 in 10.0 mi South 15.0 mph 25.3 mph N/A   Overcast
10:55 PM 44.6 °F 37.4 °F 37.4 °F 76% 29.89 in 10.0 mi South 16.1 mph 23.0 mph N/A   Overcast
11:15 PM 42.8 °F 35.4 °F 37.4 °F 81% 29.87 in 9.0 mi South 15.0 mph 26.5 mph N/A   Overcast
11:35 PM 42.8 °F 35.8 °F 37.4 °F 81% 29.85 in 8.0 mi South 13.8 mph 29.9 mph 0.01 in   Overcast
11:55 PM 42.8 °F 36.6 °F 37.4 °F 81% 29.84 in 9.0 mi South 11.5 mph 19.6 mph 0.03 in   Overcast